Weather in Faisalabad

Pakistan     31°27′42″N   73°04′22″E
temp.,
°C
wind,
m/s
gust,
m/s
humid.,
%
clouds,
%
prec.,
mm/h
press.,
hPa
HPBL,
m
10 april, sat
sat1023:00+25ene381898 0.0 1011131
02:00+23ne352311 0.0 101178
05:00+21ene33255 0.0 101163
08:00+27ene34170 0.0 1013265
11:00+34se11100 0.0 10131735
14:00+36sw2490 0.0 10103364
17:00+36wsw3480 0.0 10084223
20:00+29nnw12130 0.0 101012
11 april, sun
sun1123:00+25nne46170 0.0 1011103
02:00+24ene36245 0.0 1010104
05:00+22ene34265 0.0 101074
08:00+27ne221862 0.0 1012281
11:00+34sse2210100 0.0 10111065
14:00+38w367100 0.0 10083187
17:00+37w46798 0.0 10063391
20:00+30wnw41012100 0.0 1009195
12 april, mon
mon1223:00+28nnw2319100 0.0 101049
02:00+26ne6112697 0.1 1009203
05:00+24nne473279 0.1 1009113
08:00+28ne352485 0.0 1011405
11:00+35e111485 0.0 10111278
14:00+38ssw2397 0.0 10082724
17:00+38wnw2493 0.0 10063719
20:00+31nnw23140 0.0 100850
13 april, tue
tue1323:00+28nne34205 0.0 100972
02:00+26ne3526100 0.0 1009100
05:00+25ne472852 0.0 1008141
08:00+30ene122048 0.0 1010261
11:00+37w111299 0.0 10101146
14:00+39wsw341097 0.0 10073027
17:00+39wnw36793 0.0 10054505
20:00+32nne2313100 0.0 100643
14 april, wed
wed1423:00+29ne4719100 0.0 1007126
02:00+28e3621100 0.0 1006112
05:00+26ene3323100 0.0 100747
08:00+30ene2217100 0.0 1008319
11:00+37n2210100 0.0 1008907
14:00+41nw26756 0.0 10053700
17:00+40w567100 0.0 10034466
20:00+32nne2414100 0.0 100478